Location: Newark
(50.0306°N, 2.3272°E)
Time: 06:31:31
(UTC+00:00)

Vanguard 1 - Pass Details

Date: 11 December 2019
Orbit: 650 x 3833 km, 34.2° (Epoch: 27 January)

Event Time Altitude Azimuth Distance (km) Brightness Sun altitude
Exits shadow 03:26:37 19° 205° (SSW) 6,123 13.7 -39.2°
Maximum altitude 03:41:41 38° 156° (SSE) 4,778 13.5 -36.8°
Drops below altitude 10° 03:58:20 10° 97° (E) 5,755 14.7 -34.2°
Sets 04:02:28 0° 90° (E) 6,396 15.3 -33.5°
